User: anonymous   Login
Location: The D'Auria's Ocala Star Observatory
(29.0276°N, 82.1742°W)
Time: 06:52:38
(UTC-05:00)
Language:

Okean 3 Rocket - Orbit

View from above orbital plane
View from above orbital plane
View from above satellite
View from above satellite

Ground track
Ground track

The orbit data is extracted from the following two-line orbital elements,

1 21398U 91039B   16343.23132939  .00000061  00000-0  49271-5 0  9999
2 21398  82.5241  43.9469 0023017  88.8983 327.3134 14.79640834375676
Epoch (UTC): 08 December 2016 05:33:06
Eccentricity: 0.0023017
inclination: 82.5241°
perigee height: 614 km
apogee height: 646 km
right ascension of ascending node: 43.9469°
argument of perigee: 88.8983°
revolutions per day: 14.79640834
mean anomaly at epoch: 327.3134°
orbit number at epoch: 37567

The dashed part of the orbit path shows where the satellite is in the earth's shadow,  

DLR